Regional Weather Roundup
Issued by NWS

Home | Current Version | Previous Version | Text Only | Print | Product List | Glossary On
Versions: 1 2 3 4 5 6 7 8 9 10 11 12 13 14 15 16 17 18 19 20 21 22 23 24 25 26 27 28 29 30 31 32 33 34 35 36 37 38 39 40 41 42 43 44 45 46 47 48 49 50
000
ASUS46 KLOX 300213
RWRCA

SOUTHERN CALIFORNIA WEATHER ROUNDUP
NATIONAL WEATHER SERVICE OXNARD CALIFORNIA
700 PM PDT SUN MAY 29 2016

NOTE: "FAIR" INDICATES FEW OR NO CLOUDS BELOW 12,000 FEET WITH NO
SIGNIFICANT WEATHER AND/OR OBSTRUCTIONS TO VISIBILITY.

  -  STATIONS PRECEEDED BY AN ASTERISK (*) ARE NOT NWS OR FAA
     STATIONS AND ARE NOT SUBJECT TO NWS AND FAA QUALITY CONTROL.

CAZ041-042-087-300300-
LA AND ORANGE COUNTY COASTAL AREAS


CITY           SKY/WX    TMP DP  RH WIND       PRES   REMARKS
L.A. DOWNTOWN  SUNNY     65  53  65 VRB3      29.97R
L.A. AIRPORT   MOSUNNY   62  54  74 W14       29.98R
LONG BEACH     SUNNY     66  54  65 NW14      29.97R

CITY           SKY/WX    TMP DP  RH WIND       PRES   REMARKS
AVALON           N/A     64 N/A N/A W2          N/A
FULLERTON      PTCLDY    69  53  56 VRB5      29.96R
*GETTY CENTER    N/A     59  50  72 SW8         N/A
HAWTHORNE      SUNNY     65  53  65 W9        29.98R
*LEO CARRILLO    N/A     62  54  73 W7          N/A
*LOS ALAMITOS  FAIR      68  55  62 SW9       29.97R
*REDONDO BEACH   N/A     64  54  70 SW2       29.98R
SANTA ANA      PTCLDY    65  54  67 SW7       29.98R
STA MONICA APT SUNNY     63  52  67 W7        29.98R
TORRANCE       MOSUNNY   64  57  77 W12       29.98S
*UCLA            N/A     63  50  63 W8        29.95R

$$

CAZ547-548-048-300300-
LA COUNTY VALLEYS AND INLAND EMPIRE


CITY           SKY/WX    TMP DP  RH WIND       PRES   REMARKS
BURBANK        SUNNY     65  51  60 S8        29.96R
VAN NUYS       MOSUNNY   69  51  52 S10       29.95R

CITY           SKY/WX    TMP DP  RH WIND       PRES   REMARKS
CORONA AIRPORT PTCLDY    69  54  58 W13G18    29.95R
*CHATSWORTH      N/A     69  53  56 W6        29.96R
CHINO          PTCLDY    71  52  50 SW15      29.96R
*CLAREMONT       N/A     68  54  60 SW7         N/A
MARCH AFB      CLEAR     71  53  53 W12       29.95R
*NORTHRIDGE      N/A     68  48  49 E3          N/A
ONTARIO        PTCLDY    70  51  51 SW13      29.95R
*PASADENA        N/A     66  55  68 N1          N/A
RIVERSIDE      PTCLDY    71  52  50 W10       29.95R
SAN BERNARDINO PTCLDY    73  50  43 W7        29.94S
*SAUGUS          N/A     76  53  44 S13         N/A
*WHITEMAN AP   SUNNY     66  50  55 E7        30.00R
*WHITTIER HILL   N/A     63  53  69 SW9         N/A
*WOODLAND HILL   N/A     68  50  52 S5          N/A

$$

CAZ054-055-300300-
LA AND SAN BERNARDINO COUNTY MOUNTAINS


CITY           SKY/WX    TMP DP  RH WIND       PRES   REMARKS
*ACTON           N/A     72  51  47 W6          N/A
*BIG BEAR AIRP CLEAR     59  36  41 W8        30.13R
*BIG PINES       N/A     60  36  41 CALM        N/A
*CHILAO          N/A     63  51  65 CALM        N/A
SANDBERG       LGT RAIN  72  40  31 N20G26    30.06R
*WARM SPRINGS    N/A     68  50  52 CALM        N/A

$$

CAZ028-029-059-060-099-300300-
ANTELOPE VALLEY AND SURROUNDING AREAS


CITY           SKY/WX    TMP DP  RH WIND       PRES   REMARKS
LANCASTER      SUNNY     79  47  32 W20       29.89S
PALMDALE       SUNNY     76  48  37 SW17      29.92R
*POPPY PARK      N/A     79  40  24 W16G28      N/A

CITY           SKY/WX    TMP DP  RH WIND       PRES   REMARKS
29 PALMS       PTCLDY    84  25  11 CALM      29.92S
BARSTOW/DAGGET CLEAR     88  23   9 E3        29.84S
BISHOP         MOSUNNY   84  25  11 NW5       29.93S
CHINA LAKE     SUNNY     89  26  10 S7        29.84S
EDWARDS AFB    SUNNY     85  38  18 NW21G28   29.84S
MOJAVE         SUNNY     82  41  23 W29G35    29.90S
NEEDLES        CLEAR     92  24   8 SW12      29.79R
VICTORVILLE    PTCLDY    73  43  33 S16       29.93R

$$

CAZ039-040-300300-
VENTURA AND SANTA BARBARA COUNTY COAST


CITY           SKY/WX    TMP DP  RH WIND       PRES   REMARKS
CAMARILLO      SUNNY     64  52  64 W9        29.97R
NWS OXNARD       N/A     64  53  68 W5        29.97S
OXNARD AIRPORT SUNNY     62  55  77 W12       29.98R
*POINT MUGU    MOSUNNY   62  54  74 W9        29.99R
SBA APT/GOLETA CLOUDY    61  54  77 W9        29.98R
*SANTA BARBARA   N/A     62  53  72 NE2       30.05S
*VENTURA         N/A     62  55  78 SW3       29.96R

$$

CAZ044-045-300300-
VENTURA COUNTY VALLEYS


CITY           SKY/WX    TMP DP  RH WIND       PRES   REMARKS
*SIMI VALLEY     N/A     63  54  72 W3        29.93R
*WESTLAKE VILL   N/A     62  52  70 CALM      29.95S
*OJAI            N/A     64  55  74 W3        29.92R
*FILLMORE        N/A     66  55  66 W3        29.86R

$$

CAZ053-300300-
VENTURA COUNTY MOUNTAINS


CITY           SKY/WX    TMP DP  RH WIND       PRES   REMARKS
*ROSE VALLEY     N/A     70  57  64 MISG        N/A

$$

CAZ034-035-036-300300-
CENTRAL COAST AND SANTA YNEZ VALLEY


CITY           SKY/WX    TMP DP  RH WIND       PRES   REMARKS
SAN LUIS OBISP SUNNY     62  53  72 NW13      29.98R
SANTA MARIA    PTSUNNY   60  53  77 NW12      29.99S

CITY           SKY/WX    TMP DP  RH WIND       PRES   REMARKS
*CAL POLY SLO    N/A     61  55  82 W7          N/A
*LOMPOC        PTSUNNY   61  53  75 W14       29.99R
*PISMO BEACH     N/A     58  55  89 SW3       30.00R
*SANTA YNEZ    FAIR      66  52  59 W9        29.97R

$$

CAZ037-038-051-300300-
SAN LUIS OBISPO COUNTY INTERIOR AND CUYAMA VALLEY


CITY           SKY/WX    TMP DP  RH WIND       PRES   REMARKS
*CUYAMA          N/A     75  46  34 W17       29.85R
PASO ROBLES    SUNNY     68  51  54 S15       29.92R

$$

CAZ032-033-061-300300-
SOUTHERN DESERTS


CITY           SKY/WX    TMP DP  RH WIND       PRES   REMARKS
BLYTHE         CLEAR     91  34  13 S14       29.78S
IMPERIAL       CLEAR     92  40  16 SE6       29.76S
PALM SPRINGS   CLEAR     86  51  29 NW15      29.81S
THERMAL        CLEAR     88  35  15 SE3       29.76S

$$

ELSEWHERE ACROSS THE WESTERN UNITED STATES AND MEXICO


CITY           SKY/WX    TMP DP  RH WIND       PRES   REMARKS
DEATH VALLEY,    N/A    104  31   8 NW2         N/A  HX  97
DENVER, CO     CLOUDY    61  41  47 N8        30.09F
GRAND CANYON,  CLEAR     71  10   9 SW12      30.12R
HONOLULU, HI   MOSUNNY   81  68  65 S9        29.97S
KAHULUI, MAUI  MOSUNNY   82  61  47 NE9       29.97S
LAKE TAHOE, CA SUNNY     65  32  29 SW8       30.15R
LAS VEGAS, NV  PTCLDY    90  20   7 VRB3      29.80R
MAMMOTH LAKES, CLOUDY    60  34  37 SW13      30.19R
MEXICO CITY, M CLOUDY    66  57  72 W8        30.35R
PHOENIX, AZ    CLEAR     94  18   6 W16       29.78R
PORTLAND, OR   MOSUNNY   68  45  43 N8        30.15S
RENO, NV       PTSUNNY   79  29  16 NW16      30.02R
SALT LAKE CITY CLOUDY    70  41  34 S15       30.02R
SAN DIEGO, CA  CLOUDY    65  55  70 W8        30.00R
SAN FRANCISCO, MOSUNNY   63  51  65 NW21      29.96R
SAN JOSE, CA   MOSUNNY   70  56  61 W13       29.94R
SEATTLE, WA    MOSUNNY   62  44  51 NE13      30.19S
TIJUANA, MEX   CLOUDY    63  52  67 W13       30.00

$$

STATION/POSITION TIME  TEMP    WIND        PRES    VSBY  WAVE
                       AIR SEA DIR/SP/G                  HT/PER
                 (UTC) (F)     (DEG/KT/KT) (MB)    (MI)  (FT/S)
POINT ARGUELLO B NOT AVBL
WEST SANTA BARBA 0150   58 59  310/ 12/ 14 1015.2S         4/10
POINT CONCEPTION NOT AVBL
EAST SANTA BARBA 0100   59 58  280/ 10/ 12 1015.5S
SANTA MONICA BAY 0150   61 64  290/  6/  8 1015.4R         3/14



USA.gov is the U.S. government's official web portal to all federal, state and local government web resources and services.